Location: Newark
(57.7279°N, 5.6916°W)
Time: 00:03:09
(UTC+00:00)

N. Korean satellite - Pass Details

Date: 09 December 2019
Orbit: 454 x 507 km, 97.2° (Epoch: 22 January)

Event Time Altitude Azimuth Distance (km) Brightness Sun altitude
Rises 06:56:19 0° 12° (NNE) 2,582 10.2 -13.8°
Reaches altitude 10° 06:58:26 10° 8° (N) 1,686 9.2 -13.6°
Maximum altitude 07:01:59 57° 290° (WNW) 577 6.6 -13.1°
Drops below altitude 10° 07:05:27 10° 212° (SSW) 1,641 9.2 -12.7°
Sets 07:07:30 0° 208° (SSW) 2,505 10.1 -12.5°
